Location: ????????
(55.1591°N, 39.1782°E)
Time: 11:51:51
(UTC+00:00)

SL-16 R/B - Pass Details

Date: 14 April 2024
Orbit: 841 x 845 km, 71.0° (Epoch: 28 May)

Event Time Altitude Azimuth Distance (km) Brightness Sun altitude
Exits shadow 00:35:48 10° 273° (W) 2,502 4.2 -13.9°
Reaches altitude 10° 00:35:54 10° 274° (W) 2,469 4.2 -13.9°
Maximum altitude 00:40:36 26° 330° (NNW) 1,613 3.8 -13.4°
Drops below altitude 10° 00:45:20 10° 26° (NNE) 2,479 5.7 -12.9°
Sets 00:48:13 0° 39° (NE) 3,417 7.1 -12.6°
